Home   Weather   Garden Grove   Past weeks

Flag for USA Past Weather in Garden Grove, California, USA — Yesterday and Last 2 Weeks

Now
81 °F

Passing clouds.


Feels Like: 81 °F
Forecast: 60 / 80 °F
Wind: 7 mph from South

Location: Fullerton Municipal Airport

Current Time: May 22, 2017 at 6:16:03 pm

Latest Report: May 22, 2017 at 4:53 pm


Visibility: 10 mi

Pressure: 29.88 "Hg

Humidity: 47%

Dew Point: 59 °F

Location of Garden GroveLocation

Past Weather in Garden Grove — Graph

°F

Garden Grove Temperature Yesterday

Maximum temperature yesterday: 85 °F (at 12:53 pm)
Minimum temperature yesterday: 62 °F (at 5:53 am)
Average temperature yesterday: 74 °F

High & Low Weather Summary for the Past Weeks

 TemperatureHumidityPressure
High95 °F (May 20, 1:53 pm)93% (May 8, 3:53 am)30.13 "Hg (May 8, 3:53 am)
Low49 °F (May 8, 3:53 am)15% (May 20, 11:53 am)29.78 "Hg (May 20, 5:53 pm)
Average65 °F66%29.92 "Hg
* Reported May 7 4:34 pm — May 22 4:53 pm, Garden Grove. Weather by CustomWeather, © 2017

Note: Actual official high and low records may vary slightly from our data, if they occured in-between our weather recording intervals... More about our weather records

Advertising

Garden Grove Weather History for the Previous 24 Hours

Scroll right to see more
 ConditionsComfort  
Time TempWeatherWind HumidityBarometerVisibility
4:53 pm
Mon, May 22
81 °FPassing clouds.7 mph47%29.88 "Hg10 mi
3:53 pm79 °FSunny.8 mph48%29.89 "Hg10 mi
2:53 pm81 °FScattered clouds.7 mph44%29.90 "Hg10 mi
1:53 pm80 °FSunny.5 mph47%29.92 "Hg10 mi
12:53 pm79 °FPassing clouds.10 mph48%29.93 "Hg10 mi
11:53 am79 °FPassing clouds.6 mph48%29.95 "Hg10 mi
10:53 am74 °FPassing clouds.No wind60%29.96 "Hg8 mi
9:53 am70 °FHaze.No wind68%29.97 "Hg6 mi
9:28 am67 °FHaze.No wind76%29.98 "Hg5 mi
8:53 am64 °FOvercast.3 mph81%29.97 "Hg3 mi
7:53 am63 °FFog.3 mph87%29.95 "Hg2 mi
6:59 am62 °FFog.No wind90%29.94 "Hg2 mi
5:53 am61 °FFog.No wind93%29.91 "Hg4 mi
4:53 am61 °FFog.3 mph93%29.90 "Hg4 mi
4:29 am61 °FFog.No wind93%29.91 "Hg4 mi
3:53 am61 °FFog.3 mph93%29.90 "Hg5 mi
2:53 am62 °FFog.No wind93%29.92 "Hg5 mi
1:53 am62 °FFog.No wind93%29.94 "Hg5 mi
1:10 am62 °FPassing clouds.3 mph93%29.95 "Hg7 mi
12:53 am62 °FClear.3 mph93%29.94 "Hg8 mi
11:53 pm
Sun, May 21
65 °FClear.3 mph85%29.94 "Hg10 mi
10:53 pm66 °FClear.3 mph81%29.94 "Hg10 mi
9:53 pm68 °FClear.No wind76%29.93 "Hg10 mi
8:53 pm69 °FClear.6 mph70%29.91 "Hg10 mi
7:53 pm74 °FClear.7 mph62%29.88 "Hg10 mi
6:53 pm82 °FSunny.6 mph29%29.87 "Hg10 mi
Weather by CustomWeather, © 2017

See weather overviewHow to use our weather pages